Date String (YYYY-MM-DD hh:mm:ss) UTC,Instrument flags,absolute air pressure of the measurement (hPa),sample flow rate (lpm),inlet stack bypass flow (lpm),air temperature of the measurement (°C),ambient temperature measured by the external sensor (°C),aerosol sample conditioner tube jacket temperature (°C),OPC LED temperature (°C),internal box temperature (°C),relative humidity of the measurement (%),span deviation,mass concentration of particles derived from Lorenz-Mie calculation of OPC scattering (μg/m³),mass concentration of particles derived from Lorenz-Mie calculation of OPC scattering (μg/m³),mass concentration of particles derived from Lorenz-Mie calculation of OPC scattering (μg/m³)
DateTimeUTC,F1_M11,P_M11,Q1_M11,Q2_M11,T1_M11,T2_M11,T3_M11,T4_M11,T5_M11,U1_M11,ZSPAN_M11,X0_M11,X2_M11,X1_M11
2023-07-25 00:00:00,SystemResetWarning,0834.5,5.00,000.00,030.0,026.3,000.0,037.5,030.4,31.4,0000.0,0014.11,0005.10,0003.99
2023-07-25 00:01:00,SystemResetWarning,0834.5,5.00,000.00,030.0,026.7,000.0,037.6,030.5,30.2,0000.0,0013.70,0005.00,0003.98
2023-07-25 00:02:00,SystemResetWarning,0834.6,5.00,000.00,030.1,027.1,000.0,037.7,030.7,28.8,0000.0,0012.99,0004.98,0003.97
2023-07-25 00:03:00,SystemResetWarning,0834.5,4.98,000.00,030.1,027.1,000.0,037.7,030.7,30.9,0000.0,0013.15,0005.01,0003.96
2023-07-25 00:04:00,SystemResetWarning,0834.5,4.99,000.00,030.1,025.8,000.0,037.6,030.6,30.3,0000.0,0012.86,0004.98,0003.96
2023-07-25 00:05:00,SystemResetWarning,0834.5,5.00,000.00,030.1,024.9,000.0,037.6,030.4,31.3,0000.0,0012.30,0004.98,0003.95
2023-07-25 00:06:00,SystemResetWarning,0834.5,5.01,000.00,030.0,025.0,000.0,037.6,030.3,29.7,0000.0,0011.99,0004.95,0003.95
2023-07-25 00:07:00,SystemResetWarning,0834.5,5.01,000.00,029.9,025.4,000.0,037.7,030.2,30.9,0000.0,0012.32,0004.90,0003.95
2023-07-25 00:08:00,SystemResetWarning,0834.6,4.99,000.00,029.8,025.8,000.0,037.7,030.3,28.5,0000.0,0011.96,0004.85,0003.95
2023-07-25 00:09:00,SystemResetWarning,0834.7,5.00,000.00,029.8,026.3,000.0,037.7,030.4,26.4,0000.0,0011.75,0004.84,0003.95
2023-07-25 00:10:00,SystemResetWarning,0834.5,5.00,000.00,029.8,026.7,000.0,037.8,030.5,27.0,0000.0,0011.76,0004.87,0003.97
2023-07-25 00:11:00,SystemResetWarning,0834.8,5.00,000.00,029.8,027.1,000.0,037.8,030.7,27.2,0000.0,0012.04,0004.94,0003.99
2023-07-25 00:12:00,SystemResetWarning,0834.7,4.99,000.00,029.9,026.5,000.0,037.7,030.6,27.8,0000.0,0012.23,0005.02,0004.01
2023-07-25 00:13:00,SystemResetWarning,0834.5,5.00,000.00,029.8,025.1,000.0,037.6,030.3,27.8,0000.0,0012.00,0005.05,0004.03
2023-07-25 00:14:00,SystemResetWarning,0834.5,5.02,000.00,029.7,024.7,000.0,037.6,030.2,27.8,0000.0,0011.62,0005.04,0004.04
2023-07-25 00:15:00,SystemResetWarning,0834.5,5.00,000.00,029.6,025.1,000.0,037.6,030.1,28.5,0000.0,0011.72,0005.07,0004.05
2023-07-25 00:16:00,SystemResetWarning,0834.5,4.99,000.00,029.5,025.5,000.0,037.6,030.2,29.3,0000.0,0011.80,0005.04,0004.05
2023-07-25 00:17:00,SystemResetWarning,0834.5,5.01,000.00,029.5,026.0,000.0,037.6,030.3,28.9,0000.0,0011.80,0005.03,0004.05
2023-07-25 00:18:00,SystemResetWarning,0834.5,5.01,000.00,029.5,026.4,000.0,037.6,030.4,29.4,0000.0,0012.53,0005.01,0004.04
2023-07-25 00:19:00,SystemResetWarning,0834.5,5.00,000.00,029.5,026.8,000.0,037.7,030.5,29.4,0000.0,0012.96,0004.96,0004.04
2023-07-25 00:20:00,SystemResetWarning,0834.5,4.99,000.00,029.5,027.2,000.0,037.7,030.6,30.0,0000.0,0013.11,0004.95,0004.03
2023-07-25 00:21:00,SystemResetWarning,0834.4,4.99,000.00,029.6,027.3,000.0,037.7,030.7,30.2,0000.0,0013.24,0004.91,0004.01
2023-07-25 00:22:00,SystemResetWarning,0834.3,4.99,000.00,029.6,026.0,000.0,037.6,030.5,29.2,0000.0,0013.76,0004.90,0003.99
2023-07-25 00:23:00,SystemResetWarning,0834.4,5.01,000.00,029.5,024.9,000.0,037.5,030.3,29.4,0000.0,0013.70,0004.92,0003.97
2023-07-25 00:24:00,SystemResetWarning,0834.4,5.01,000.00,029.4,024.9,000.0,037.4,030.2,30.2,0000.0,0013.17,0004.93,0003.95
2023-07-25 00:25:00,SystemResetWarning,0834.4,5.01,000.00,029.3,025.3,000.0,037.5,030.1,30.8,0000.0,0013.35,0004.93,0003.94
2023-07-25 00:26:00,SystemResetWarning,0834.4,4.99,000.00,029.3,025.7,000.0,037.5,030.2,30.6,0000.0,0013.51,0004.92,0003.93
2023-07-25 00:27:00,SystemResetWarning,0834.4,5.00,000.00,029.3,026.2,000.0,037.5,030.3,30.8,0000.0,0014.00,0004.97,0003.94
2023-07-25 00:28:00,SystemResetWarning,0834.4,5.00,000.00,029.3,026.6,000.0,037.5,030.4,29.7,0000.0,0014.03,0005.01,0003.93
2023-07-25 00:29:00,SystemResetWarning,0834.4,5.00,000.00,029.3,027.0,000.0,037.5,030.5,29.3,0000.0,0014.02,0005.00,0003.93
2023-07-25 00:30:00,SystemResetWarning,0834.4,4.99,000.00,029.3,027.3,000.0,037.6,030.6,29.5,0000.0,0013.43,0005.09,0003.94
2023-07-25 00:31:00,SystemResetWarning,0834.4,4.99,000.00,029.4,026.9,000.0,037.5,030.6,29.7,0000.0,0013.47,0005.14,0003.94
2023-07-25 00:32:00,SystemResetWarning,0834.4,5.00,000.00,029.3,025.5,000.0,037.4,030.4,29.3,0000.0,0013.30,0005.13,0003.95
2023-07-25 00:33:00,SystemResetWarning,0834.4,5.00,000.00,029.2,024.9,000.0,037.3,030.2,28.5,0000.0,0012.75,0005.12,0003.96
2023-07-25 00:34:00,SystemResetWarning,0834.3,5.01,000.00,029.2,025.1,000.0,037.3,030.1,29.9,0000.0,0013.59,0005.14,0003.97
2023-07-25 00:35:00,SystemResetWarning,0834.4,5.00,000.00,029.1,025.5,000.0,037.3,030.1,30.6,0000.0,0013.86,0005.12,0003.98
2023-07-25 00:36:00,SystemResetWarning,0834.4,4.99,000.00,029.1,026.0,000.0,037.3,030.3,30.4,0000.0,0013.83,0005.08,0003.99
2023-07-25 00:37:00,SystemResetWarning,0834.4,5.00,000.00,029.1,026.4,000.0,037.4,030.3,31.7,0000.0,0014.68,0005.09,0004.00
2023-07-25 00:38:00,SystemResetWarning,0834.5,5.01,000.00,029.1,026.8,000.0,037.4,030.4,33.4,0000.0,0014.80,0005.13,0004.00
2023-07-25 00:39:00,SystemResetWarning,0834.5,5.01,000.00,029.2,027.2,000.0,037.4,030.6,33.4,0000.0,0015.41,0005.15,0004.01
2023-07-25 00:40:00,SystemResetWarning,0834.5,4.99,000.00,029.2,027.0,000.0,037.4,030.6,33.7,0000.0,0015.51,0005.19,0004.02
2023-07-25 00:41:00,SystemResetWarning,0834.6,5.01,000.00,029.1,025.5,000.0,037.3,030.3,32.9,0000.0,0015.84,0005.15,0004.02
2023-07-25 00:42:00,SystemResetWarning,0834.9,5.02,000.00,029.1,024.9,000.0,037.2,030.2,32.1,0000.0,0016.68,0005.15,0004.02
2023-07-25 00:43:00,SystemResetWarning,0835.1,5.00,000.00,029.0,025.0,000.0,037.2,030.0,31.4,0000.0,0017.09,0005.22,0004.03
2023-07-25 00:44:00,SystemResetWarning,0835.1,5.00,000.00,028.9,025.4,000.0,037.2,030.0,32.3,0000.0,0017.13,0005.21,0004.02
2023-07-25 00:45:00,SystemResetWarning,0835.1,5.00,000.00,028.9,025.9,000.0,037.2,030.2,32.2,0000.0,0015.98,0005.18,0004.03
2023-07-25 00:46:00,SystemResetWarning,0834.9,5.00,000.00,028.9,026.4,000.0,037.2,030.3,31.8,0000.0,0015.68,0005.15,0004.03
2023-07-25 00:47:00,SystemResetWarning,0835.1,5.00,000.00,029.0,026.8,000.0,037.3,030.4,32.4,0000.0,0016.04,0005.20,0004.03
2023-07-25 00:48:00,SystemResetWarning,0835.0,5.00,000.00,029.0,027.2,000.0,037.3,030.5,33.0,0000.0,0015.59,0005.23,0004.04
2023-07-25 00:49:00,SystemResetWarning,0835.1,4.99,000.00,029.0,027.0,000.0,037.3,030.5,33.3,0000.0,0016.68,0005.20,0004.05
2023-07-25 00:50:00,SystemResetWarning,0834.7,5.00,000.00,029.0,025.6,000.0,037.1,030.3,33.9,0000.0,0016.61,0005.21,0004.07
2023-07-25 00:51:00,SystemResetWarning,0834.5,5.01,000.00,029.0,024.9,000.0,037.1,030.2,34.9,0000.0,0016.07,0005.26,0004.10
2023-07-25 00:52:00,SystemResetWarning,0834.5,4.99,000.00,028.9,025.0,000.0,037.1,030.1,35.8,0000.0,0015.33,0005.31,0004.14
2023-07-25 00:53:00,SystemResetWarning,0834.8,5.02,000.00,029.1,025.4,000.0,037.1,030.2,34.0,0000.0,0015.26,0005.36,0004.17
2023-07-25 00:54:00,SystemResetWarning,0834.8,4.98,000.00,029.2,025.9,000.0,037.1,030.3,34.4,0000.0,0015.28,0005.36,0004.20
2023-07-25 00:55:00,SystemResetWarning,0834.8,4.99,000.00,029.3,026.4,000.0,037.2,030.4,34.8,0000.0,0015.01,0005.38,0004.23
2023-07-25 00:56:00,SystemResetWarning,0834.8,5.03,000.00,029.5,026.8,000.0,037.2,030.5,34.7,0000.0,0015.16,0005.41,0004.26
2023-07-25 00:57:00,SystemResetWarning,0834.6,4.97,000.00,029.7,027.2,000.0,037.3,030.7,32.2,0000.0,0015.42,0005.42,0004.28
2023-07-25 00:58:00,SystemResetWarning,0834.8,5.00,000.00,029.8,027.1,000.0,037.3,030.7,29.9,0000.0,0016.38,0005.42,0004.29
2023-07-25 00:59:00,SystemResetWarning,0834.7,5.00,000.00,029.9,025.7,000.0,037.3,030.5,31.5,0000.0,0017.05,0005.41,0004.30
